This demonstration page uses our WeatherBlox Daily Observations layout. Learn more.

36.19886, -115.1175

Hourly Observations for November 16, 2018

Temp ( °F °C ) Dew Point ( °F °C ) Humidity (%) Winds ( mph kmh ) Pressure ( in mb ) Visibility ( mi km ) Precip ( " mm )
12:53 am 00:53 Clear 48 8.9 21 -6.1 34 34 NW 7 11 30.09 1019 10 16.09344 0 0
1:53 am 01:53 Clear 48 8.9 24 -4.4 39 39 W 5 7 30.09 1019 10 16.09344 0 0
2:53 am 02:53 Clear 45 7.2 22 -5.6 40 40 W 3 6 30.09 1019 10 16.09344 0 0
3:53 am 03:53 Clear 45 7.2 23 -5 42 42 WNW 3 6 30.09 1019 10 16.09344 0 0
4:53 am 04:53 Clear 45 7.2 24 -4.4 44 44 WNW 5 7 30.09 1019 10 16.09344 0 0
5:53 am 05:53 Clear 44 6.7 22 -5.6 41 41 NW 7 11 30.12 1020 10 16.09344 0 0
6:53 am 06:53 Sunny 46 7.8 23 -5 40 40 WNW 5 7 30.12 1020 10 16.09344 0 0
7:53 am 07:53 Sunny 51 10.6 24 -4.4 35 35 Calm 30.12 1020 10 16.09344 0 0
8:53 am 08:53 Sunny 55 12.8 24 -4.4 30 30 Calm 30.12 1020 10 16.09344 0 0
9:53 am 09:53 Sunny 58 14.4 22 -5.6 25 25 SSE 3 6 30.12 1020 10 16.09344 0 0
10:53 am 10:53 Sunny 60 15.6 21 -6.1 22 22 SE 5 7 30.09 1019 10 16.09344 0 0
11:53 am 11:53 Sunny 62 16.7 18 -7.8 18 18 Calm 30.06 1018 10 16.09344 0 0
12:53 pm 12:53 Sunny 65 18.3 19 -7.2 17 17 Calm 30.03 1017 10 16.09344 0 0
1:53 pm 13:53 Sunny 65 18.3 19 -7.2 17 17 SSE 5 7 30.03 1017 10 16.09344 0 0
2:53 pm 14:53 Sunny 66 18.9 19 -7.2 16 16 E 3 6 30.03 1017 10 16.09344 0 0
3:53 pm 15:53 Sunny 66 18.9 19 -7.2 16 16 Calm 30.03 1017 10 16.09344 0 0
4:53 pm 16:53 Clear 63 17.2 19 -7.2 18 18 Calm 30.03 1017 10 16.09344 0 0
5:53 pm 17:53 Clear 58 14.4 23 -5 26 26 Calm 30.03 1017 10 16.09344 0 0
6:53 pm 18:53 Clear 54 12.2 24 -4.4 31 31 NW 3 6 30.03 1017 10 16.09344 0 0
7:53 pm 19:53 Clear 52 11.1 24 -4.4 34 34 NNW 7 11 30.03 1017 10 16.09344 0 0
8:53 pm 20:53 Clear 50 10 23 -5 35 35 NNW 6 9 30.03 1017 10 16.09344 0 0
9:53 pm 21:53 Clear 50 10 22 -5.6 33 33 NW 6 9 30.03 1017 10 16.09344 0 0
10:53 pm 22:53 Clear 48 8.9 24 -4.4 39 39 NNW 6 9 30.03 1017 10 16.09344 0 0
11:53 pm 23:53 Clear 46 7.8 24 -4.4 42 42 Calm 30.03 1017 10 16.09344 0 0

Powered by AerisWeather